"startDT [UTC]","vpos","CH4 [ppm]","stdev(CH4) [ppm]","CO2 [ppm]","stdev(CO2) [ppm]","H2O [ppm]","stdev(H2O)","p_LGR [torr]","T_LGR [C]","mt1_LGR [us]","mt2_LGR [us]","T_ECpre [C]","T_EC1 [C]","T_EC2 [C]","p_inlet [hPa]","p_in [hPa]","p_out [hPa]","T_inlet [C]","RH_inlet [%]","dwpt_inlet [C]","T_vent [C]","RH_vent [%]","dwpt_vent [C]","flow_vent [l min-1]","flow_inlet [l min-1]","dwpt_sample [C]","T_room [C]"
2012-01-11 00:00:00,0.0,1.9112,0.0009,401.40,0.22,8.3,15.9,138.13,28.18,24.59,36.30,0.04,-272.74,-272.74,-47,551,-930,22.5,2.3,-27.6,22.6,2.4,-27.3,5.73,2.37,-28.2,27.6
2012-01-11 00:01:00,0.0,1.9112,0.0008,401.36,0.24,11.6,19.4,138.13,28.17,24.60,36.30,0.04,-272.74,-272.74,-47,551,-930,22.5,2.3,-27.6,22.6,2.4,-27.3,5.73,2.33,-28.2,27.6
2012-01-11 00:02:00,0.0,1.9115,0.0008,401.29,0.17,7.4,16.9,138.13,28.17,24.59,36.31,0.04,-272.74,-272.74,-47,551,-930,22.5,2.3,-27.6,22.6,2.4,-27.4,5.73,2.38,-28.2,27.6
2012-01-11 00:03:00,0.0,1.9120,0.0009,401.39,0.22,7.3,12.3,138.13,28.17,24.59,36.30,0.04,-272.74,-272.74,-48,551,-930,22.5,2.3,-27.7,22.5,2.3,-27.5,5.73,2.44,-28.2,27.6
2012-01-11 00:04:00,0.0,1.9109,0.0009,401.28,0.23,8.0,16.4,138.13,28.17,24.60,36.31,0.04,-272.74,-272.74,-48,551,-930,22.5,2.3,-27.8,22.5,2.4,-27.4,5.73,2.48,-28.2,27.6
2012-01-11 00:05:00,0.0,1.9105,0.0007,401.31,0.25,10.6,19.6,138.13,28.16,24.59,36.30,0.04,-272.74,-272.74,-48,551,-930,22.4,2.3,-27.7,22.5,2.4,-27.4,5.73,2.45,-28.2,27.6
2012-01-11 00:06:00,0.0,1.9106,0.0010,401.32,0.19,12.1,18.4,138.13,28.16,24.60,36.30,0.04,-272.74,-272.74,-48,551,-930,22.4,2.3,-27.7,22.5,2.4,-27.4,5.73,2.38,-28.3,27.6
2012-01-11 00:07:00,0.0,1.9108,0.0009,401.33,0.23,14.6,20.8,138.13,28.15,24.60,36.31,0.04,-272.74,-272.74,-47,551,-930,22.3,2.3,-27.8,22.5,2.4,-27.4,5.73,2.33,-28.3,27.6
2012-01-11 00:08:00,0.0,1.9110,0.0009,401.34,0.25,8.4,16.6,138.13,28.15,24.60,36.30,0.04,-272.74,-272.74,-47,551,-930,22.3,2.3,-27.7,22.5,2.4,-27.4,5.73,2.37,-28.3,27.4
2012-01-11 00:09:00,0.0,1.9106,0.0008,401.34,0.23,14.4,23.0,138.13,28.14,24.59,36.30,0.04,-272.74,-272.74,-47,552,-930,22.3,2.3,-27.7,22.4,2.4,-27.3,5.73,2.44,-28.3,27.4
2012-01-11 00:10:00,0.0,1.9110,0.0010,401.35,0.21,8.3,17.1,138.13,28.14,24.60,36.30,0.04,-272.74,-272.74,-48,552,-930,22.3,2.3,-27.6,22.4,2.4,-27.3,5.73,2.47,-28.3,27.4
2012-01-11 00:11:00,0.0,1.9114,0.0009,401.36,0.23,8.4,15.1,138.13,28.14,24.60,36.30,0.04,-272.74,-272.74,-48,551,-930,22.2,2.3,-27.7,22.4,2.4,-27.3,5.73,2.45,-28.3,27.3
2012-01-11 00:12:00,0.0,1.9107,0.0008,401.35,0.22,12.8,20.1,138.13,28.13,24.60,36.31,0.04,-272.74,-272.74,-47,551,-930,22.2,2.4,-27.6,22.4,2.4,-27.3,5.73,2.39,-28.3,27.4
2012-01-11 00:13:00,0.0,1.9110,0.0008,401.34,0.22,11.2,16.6,138.13,28.13,24.60,36.30,0.04,-272.74,-272.74,-47,552,-931,22.1,2.3,-27.8,22.3,2.4,-27.3,5.73,2.34,-28.3,27.4
2012-01-11 00:14:00,0.0,1.9105,0.0009,401.35,0.22,8.8,17.2,138.13,28.12,24.60,36.30,0.04,-272.74,-272.74,-48,551,-930,22.1,2.4,-27.6,22.3,2.4,-27.3,5.73,2.35,-28.2,27.4
2012-01-11 00:15:00,0.0,1.9115,0.0008,401.47,0.22,13.4,19.0,138.13,28.12,24.60,36.30,0.04,-272.74,-272.74,-47,551,-930,22.1,2.4,-27.7,22.3,2.4,-27.3,5.73,2.41,-28.2,27.4
2012-01-11 00:16:00,0.0,1.9112,0.0010,401.44,0.22,11.0,19.7,138.13,28.12,24.60,36.30,0.04,-272.74,-272.74,-47,552,-930,22.1,2.3,-27.8,22.3,2.4,-27.5,5.73,2.47,-28.2,27.4
2012-01-11 00:17:00,0.0,1.9117,0.0011,401.45,0.21,10.5,18.5,138.14,28.11,24.60,36.30,0.04,-272.74,-272.74,-47,551,-930,22.0,2.3,-27.8,22.3,2.4,-27.5,5.73,2.47,-28.2,27.4
2012-01-11 00:18:00,0.0,1.9124,0.0008,401.41,0.21,12.3,18.7,138.13,28.11,24.59,36.31,0.04,-272.74,-272.74,-47,551,-930,22.0,2.3,-27.8,22.3,2.4,-27.4,5.73,2.42,-28.2,27.4
2012-01-11 00:19:00,0.0,1.9119,0.0009,401.41,0.19,7.9,17.3,138.14,28.10,24.60,36.30,0.04,-272.74,-272.74,-47,550,-930,22.0,2.3,-27.8,22.2,2.4,-27.5,5.73,2.35,-28.3,26.9
2012-01-11 00:20:00,0.0,1.9111,0.0009,401.43,0.22,3.8,10.1,138.14,28.09,24.60,36.30,0.04,-272.74,-272.74,-47,550,-930,21.9,2.3,-27.9,22.2,2.4,-27.5,5.73,2.34,-28.5,26.8
2012-01-11 00:21:00,0.0,1.9112,0.0009,401.35,0.26,3.4,10.6,138.14,28.09,24.60,36.31,0.04,-272.74,-272.74,-46,550,-930,21.9,2.4,-27.8,22.1,2.4,-27.5,5.73,2.40,-28.7,26.7
2012-01-11 00:22:00,0.0,1.9116,0.0009,401.41,0.22,4.5,13.9,138.14,28.08,24.60,36.30,0.04,-272.74,-272.74,-44,548,-929,21.9,2.3,-27.9,22.1,2.4,-27.6,5.73,2.47,-28.9,26.5
2012-01-11 00:23:00,0.0,1.9111,0.0010,401.38,0.21,2.1,8.7,138.15,28.07,24.59,36.30,0.04,-272.74,-272.74,-47,549,-930,21.8,2.3,-27.9,22.0,2.4,-27.7,5.73,2.49,-29.1,26.2
2012-01-11 00:24:00,0.0,1.9100,0.0010,401.33,0.23,1.0,5.9,138.15,28.05,24.59,36.30,0.04,-272.74,-272.75,-48,549,-930,21.8,2.3,-27.9,21.9,2.4,-27.6,5.73,2.42,-29.1,26.5
2012-01-11 00:25:00,0.0,1.9101,0.0008,401.38,0.21,0.8,8.1,138.15,28.04,24.59,36.29,0.04,-272.74,-272.75,-47,549,-930,21.8,2.3,-28.0,21.9,2.4,-27.6,5.73,2.35,-29.1,26.8
2012-01-11 00:26:00,0.0,1.9109,0.0011,401.47,0.26,1.7,6.6,138.15,28.03,24.59,36.29,0.04,-272.74,-272.74,-46,546,-929,21.8,2.4,-27.9,21.9,2.4,-27.7,5.73,2.34,-29.0,26.9
2012-01-11 00:27:00,0.0,1.9115,0.0009,401.52,0.19,1.6,8.7,138.15,28.02,24.59,36.29,0.04,-272.74,-272.74,-48,548,-932,21.7,2.4,-27.9,21.9,2.4,-27.6,5.73,2.43,-29.0,27.0
2012-01-11 00:28:00,0.0,1.9116,0.0009,401.46,0.17,1.7,9.7,138.15,28.01,24.59,36.29,0.04,-272.74,-272.74,-47,548,-930,21.6,2.4,-28.0,21.8,2.4,-27.6,5.73,2.48,-29.0,26.9
2012-01-11 00:29:00,0.0,1.9110,0.0009,401.51,0.23,1.8,5.6,138.15,28.00,24.59,36.30,0.04,-272.74,-272.74,-47,548,-930,21.4,2.4,-28.1,21.7,2.4,-27.7,5.73,2.47,-29.0,26.9
2012-01-11 00:30:00,0.0,1.9110,0.0010,401.50,0.24,-0.6,2.5,138.15,27.99,24.59,36.29,0.04,-272.74,-272.74,-47,548,-929,21.2,2.4,-28.0,21.6,2.4,-27.7,5.73,2.39,-29.0,26.9
2012-01-11 00:31:00,0.0,1.9116,0.0010,401.54,0.23,0.9,6.5,138.15,27.98,24.59,36.29,0.04,-272.74,-272.74,-47,547,-929,21.1,2.4,-28.0,21.5,2.4,-27.7,5.73,2.34,-29.1,26.9
2012-01-11 00:32:00,0.0,1.9119,0.0009,401.41,0.24,0.1,3.5,138.15,27.97,24.59,36.30,0.04,-272.74,-272.74,-47,547,-929,21.1,2.4,-28.0,21.5,2.4,-27.8,5.73,2.36,-29.0,26.7
2012-01-11 00:33:00,0.0,1.9119,0.0008,401.57,0.22,0.4,6.2,138.15,27.96,24.59,36.29,0.04,-272.74,-272.74,-47,547,-929,21.0,2.4,-28.1,21.5,2.4,-27.8,5.73,2.45,-29.0,26.7
2012-01-11 00:34:00,0.0,1.9118,0.0008,401.61,0.24,3.0,13.0,138.15,27.95,24.59,36.29,0.04,-272.74,-272.74,-47,547,-929,21.0,2.4,-28.1,21.4,2.4,-27.8,5.73,2.49,-29.0,26.7
2012-01-11 00:35:00,0.0,1.9122,0.0010,401.56,0.23,0.6,5.8,138.15,27.94,24.59,36.30,0.04,-272.73,-272.74,-47,547,-929,20.9,2.4,-28.1,21.4,2.4,-27.8,5.73,2.44,-28.9,26.8
2012-01-11 00:36:00,0.0,1.9117,0.0008,401.50,0.22,3.9,10.4,138.15,27.93,24.59,36.30,0.04,-272.74,-272.74,-47,547,-929,20.9,2.5,-28.0,21.3,2.5,-27.7,5.73,2.34,-28.9,26.9
2012-01-11 00:37:00,0.0,1.9121,0.0009,401.64,0.20,1.2,7.3,138.15,27.93,24.59,36.29,0.04,-272.74,-272.74,-47,547,-929,20.9,2.5,-28.0,21.3,2.5,-27.8,5.73,2.34,-28.9,26.9
2012-01-11 00:38:00,0.0,1.9118,0.0010,401.55,0.24,4.7,11.9,138.15,27.92,24.59,36.30,0.04,-272.74,-272.75,-47,547,-929,20.9,2.5,-28.0,21.3,2.5,-27.7,5.73,2.45,-28.9,27.0
2012-01-11 00:39:00,0.0,1.9123,0.0009,401.73,0.18,3.9,10.6,138.15,27.91,24.59,36.29,0.04,-272.73,-272.74,-47,547,-929,20.9,2.5,-28.1,21.3,2.5,-27.8,5.73,2.50,-28.9,26.9
2012-01-11 00:40:00,0.0,1.9127,0.0010,401.67,0.26,2.0,8.5,138.15,27.90,24.59,36.29,0.04,-272.74,-272.74,-47,547,-929,20.9,2.5,-28.1,21.3,2.5,-27.8,5.73,2.38,-28.9,26.9
2012-01-11 00:41:00,0.0,1.9129,0.0009,401.72,0.23,2.4,8.6,138.15,27.90,24.59,36.29,0.04,-272.74,-272.74,-46,547,-929,20.8,2.5,-28.1,21.3,2.5,-27.8,5.73,2.32,-28.9,26.9
2012-01-11 00:42:00,0.0,1.9128,0.0013,401.75,0.22,5.2,14.0,138.15,27.89,24.59,36.28,0.04,-272.74,-272.74,-46,547,-929,20.8,2.5,-28.1,21.3,2.5,-27.8,5.73,2.44,-28.9,26.9
2012-01-11 00:43:00,0.0,1.9130,0.0008,401.59,0.22,2.7,9.7,138.15,27.88,24.59,36.30,0.04,-272.74,-272.74,-46,547,-929,20.8,2.5,-28.1,21.3,2.5,-27.8,5.73,2.50,-28.8,26.9
2012-01-11 00:44:00,0.0,1.9132,0.0008,401.72,0.21,5.1,13.1,138.15,27.87,24.59,36.29,0.04,-272.73,-272.74,-47,547,-929,20.8,2.5,-28.1,21.2,2.5,-27.8,5.73,2.39,-28.8,26.8
2012-01-11 00:45:00,0.0,1.9128,0.0008,401.64,0.22,5.6,15.8,138.15,27.86,24.59,36.29,0.04,-272.74,-272.74,-47,547,-929,20.8,2.5,-28.1,21.2,2.5,-27.8,5.73,2.31,-28.9,26.7
2012-01-11 00:46:00,0.0,1.9133,0.0010,401.73,0.24,5.9,12.9,138.15,27.85,24.59,36.29,0.04,-272.75,-272.73,-46,547,-929,20.8,2.4,-28.2,21.2,2.4,-27.9,5.73,2.44,-28.8,26.7
2012-01-11 00:47:00,0.0,1.9141,0.0011,401.72,0.23,8.9,16.5,138.15,27.85,24.59,36.29,0.04,-272.74,-272.74,-46,547,-929,20.7,2.4,-28.3,21.2,2.4,-27.9,5.73,2.51,-28.8,26.6
2012-01-11 00:48:00,0.0,1.9137,0.0010,401.76,0.23,5.6,14.2,138.15,27.84,24.59,36.29,0.04,-272.74,-272.74,-47,546,-929,20.7,2.5,-28.1,21.2,2.5,-27.9,5.73,2.37,-28.8,26.6
2012-01-11 00:49:00,0.0,1.9125,0.0010,401.76,0.27,4.7,11.2,138.15,27.83,24.59,36.29,0.04,-272.74,-272.74,-47,547,-929,20.7,2.5,-28.2,21.2,2.5,-27.8,5.73,2.32,-28.8,26.6
2012-01-11 00:50:00,0.0,1.9129,0.0007,401.73,0.23,8.4,19.7,138.15,27.82,24.59,36.29,0.04,-272.74,-272.74,-47,547,-929,20.7,2.5,-28.2,21.2,2.5,-27.7,5.73,2.46,-28.8,26.6
2012-01-11 00:51:00,0.0,1.9124,0.0010,401.70,0.24,5.1,12.1,138.15,27.81,24.59,36.29,0.04,-272.75,-272.74,-46,547,-929,20.7,2.5,-28.1,21.2,2.5,-27.7,5.73,2.50,-28.8,26.6
2012-01-11 00:52:00,0.0,1.9133,0.0009,401.69,0.22,4.6,14.1,138.15,27.81,24.59,36.29,0.04,-272.73,-272.74,-46,546,-928,20.7,2.5,-28.0,21.1,2.5,-27.6,5.73,2.35,-28.8,26.6
2012-01-11 00:53:00,0.0,1.9128,0.0010,401.71,0.24,5.9,13.9,138.15,27.80,24.59,36.29,0.04,-272.74,-272.73,-46,547,-929,20.7,2.5,-28.0,21.1,2.5,-27.6,5.73,2.33,-28.8,26.5
2012-01-11 00:54:00,0.0,1.9133,0.0009,401.83,0.26,8.2,15.5,138.15,27.79,24.59,36.29,0.04,-272.74,-272.75,-47,546,-929,20.7,2.5,-28.1,21.1,2.5,-27.6,5.73,2.49,-28.8,26.5
2012-01-11 00:55:00,0.0,1.9142,0.0009,401.81,0.20,8.1,19.2,138.15,27.78,24.59,36.29,0.04,-272.73,-272.75,-46,547,-929,20.7,2.5,-28.1,21.1,2.5,-27.7,5.73,2.47,-28.9,26.5
2012-01-11 00:56:00,0.0,1.9144,0.0008,401.90,0.20,7.0,14.3,138.15,27.78,24.59,36.29,0.04,-272.74,-272.74,-46,547,-929,20.7,2.5,-28.1,21.1,2.5,-27.7,5.73,2.32,-28.8,26.5
2012-01-11 00:57:00,0.0,1.9133,0.0014,401.72,0.26,6.6,11.7,138.15,27.77,24.59,36.29,0.04,-272.74,-272.74,-46,547,-929,20.7,2.5,-28.0,21.1,2.5,-27.7,5.73,2.38,-28.8,26.5
2012-01-11 00:58:00,0.0,1.9129,0.0010,401.85,0.22,6.0,14.9,138.15,27.76,24.59,36.28,0.04,-272.74,-272.74,-47,546,-929,20.7,2.5,-28.1,21.1,2.5,-27.7,5.73,2.52,-28.8,26.5
2012-01-11 00:59:00,0.0,1.9126,0.0007,401.67,0.21,5.2,14.0,138.15,27.76,24.59,36.30,0.04,-272.74,-272.74,-46,547,-929,20.6,2.5,-28.1,21.1,2.5,-27.7,5.73,2.40,-28.8,26.5
2012-01-11 01:00:00,0.0,1.9126,0.0007,401.69,0.25,5.2,13.2,138.15,27.75,24.59,36.30,0.04,-272.75,-272.74,-46,547,-929,20.6,2.5,-28.0,21.1,2.5,-27.6,5.73,2.31,-28.8,26.5
2012-01-11 01:01:00,0.0,1.9127,0.0009,401.73,0.20,5.3,13.1,138.15,27.74,24.59,36.30,0.04,-272.74,-272.75,-46,547,-929,20.6,2.5,-28.0,21.1,2.5,-27.6,5.73,2.45,-28.8,26.4
2012-01-11 01:02:00,0.0,1.9118,0.0009,401.75,0.26,13.6,22.2,138.15,27.74,24.59,36.29,0.04,-272.74,-272.74,-46,547,-929,20.6,2.5,-28.0,21.0,2.5,-27.6,5.73,2.50,-28.8,26.4
2012-01-11 01:03:00,0.0,1.9126,0.0008,401.68,0.24,4.9,11.8,138.15,27.73,24.59,36.30,0.04,-272.74,-272.75,-46,547,-929,20.6,2.5,-28.0,21.0,2.5,-27.6,5.73,2.35,-28.8,26.5
2012-01-11 01:04:00,0.0,1.9129,0.0011,401.87,0.18,8.2,16.9,138.15,27.72,24.59,36.29,0.04,-272.74,-272.74,-46,546,-929,20.6,2.5,-28.0,21.0,2.5,-27.7,5.73,2.34,-28.8,26.6
2012-01-11 01:05:00,0.0,1.9138,0.0011,401.73,0.28,9.0,20.6,138.15,27.72,24.59,36.30,0.04,-272.74,-272.75,-45,547,-929,20.5,2.5,-28.2,21.0,2.5,-27.7,5.73,2.50,-28.8,26.7
2012-01-11 01:06:00,0.0,1.9144,0.0010,401.94,0.18,7.6,16.6,138.15,27.71,24.59,36.29,0.04,-272.74,-272.75,-46,546,-929,20.5,2.5,-28.2,21.0,2.5,-27.7,5.73,2.46,-28.8,26.7
2012-01-11 01:07:00,0.0,1.9134,0.0011,401.87,0.22,9.6,19.8,138.15,27.71,24.59,36.30,0.04,-272.74,-272.74,-46,546,-928,20.5,2.5,-28.2,21.0,2.5,-27.7,5.73,2.30,-28.8,26.7
2012-01-11 01:08:00,0.0,1.9129,0.0008,401.92,0.24,6.9,15.6,138.15,27.70,24.59,36.29,0.04,-272.74,-272.74,-46,546,-929,20.5,2.5,-28.2,20.9,2.5,-27.7,5.73,2.41,-28.8,26.7
2012-01-11 01:09:00,0.0,1.9136,0.0010,401.99,0.22,6.3,15.8,138.15,27.69,24.59,36.29,0.04,-272.74,-272.74,-46,546,-929,20.5,2.5,-28.2,20.9,2.5,-27.8,5.73,2.52,-28.8,26.7
2012-01-11 01:10:00,0.0,1.9139,0.0008,401.89,0.22,5.7,12.1,138.15,27.69,24.59,36.29,0.04,-272.74,-272.74,-46,546,-929,20.5,2.5,-28.2,20.9,2.5,-27.8,5.73,2.36,-28.8,26.7
2012-01-11 01:11:00,0.0,1.9144,0.0009,402.07,0.26,13.2,24.2,138.15,27.68,24.59,36.28,0.04,-272.74,-272.74,-46,546,-929,20.5,2.5,-28.2,20.9,2.5,-27.8,5.73,2.34,-28.8,26.7
2012-01-11 01:12:00,0.0,1.9154,0.0010,402.08,0.23,7.5,15.9,138.15,27.67,24.59,36.29,0.04,-272.74,-272.74,-46,546,-929,20.5,2.5,-28.2,20.9,2.5,-27.8,5.73,2.51,-28.8,26.7
2012-01-11 01:13:00,0.0,1.9149,0.0010,402.15,0.22,7.2,14.2,138.15,27.67,24.59,36.28,0.04,-272.74,-272.73,-46,546,-928,20.5,2.5,-28.2,20.9,2.5,-27.8,5.73,2.43,-28.8,26.7
2012-01-11 01:14:00,0.0,1.9153,0.0010,402.05,0.27,12.2,20.7,138.15,27.66,24.59,36.29,0.04,-272.75,-272.73,-46,546,-929,20.5,2.5,-28.2,20.9,2.5,-27.8,5.73,2.31,-28.8,26.7
2012-01-11 01:15:00,0.0,1.9155,0.0009,402.25,0.24,8.4,17.0,138.15,27.65,24.58,36.28,0.04,-272.75,-272.74,-46,546,-928,20.5,2.5,-28.2,20.9,2.5,-27.8,5.73,2.46,-28.8,26.7
2012-01-11 01:16:00,0.0,1.9167,0.0009,402.28,0.21,9.0,13.2,138.15,27.65,24.59,36.28,0.04,-272.74,-272.75,-46,546,-929,20.5,2.5,-28.2,20.9,2.5,-27.8,5.73,2.49,-28.8,26.7
2012-01-11 01:17:00,0.0,1.9166,0.0007,402.23,0.20,7.7,17.5,138.15,27.64,24.59,36.29,0.04,-272.74,-272.74,-46,546,-928,20.5,2.5,-28.2,20.9,2.5,-27.8,5.73,2.32,-28.8,26.7
2012-01-11 01:18:00,0.0,1.9168,0.0011,402.30,0.24,12.5,22.7,138.15,27.64,24.59,36.28,0.04,-272.74,-272.74,-45,546,-929,20.5,2.5,-28.3,20.9,2.5,-27.8,5.73,2.38,-28.8,26.7
2012-01-11 01:19:00,0.0,1.9175,0.0010,402.40,0.23,10.9,20.6,138.15,27.63,24.59,36.28,0.04,-272.74,-272.74,-46,546,-929,20.5,2.5,-28.3,20.9,2.5,-27.8,5.73,2.52,-28.8,26.7
2012-01-11 01:20:00,0.0,1.9167,0.0009,402.35,0.26,7.1,14.9,138.15,27.63,24.58,36.28,0.04,-272.74,-272.74,-46,546,-929,20.5,2.5,-28.3,20.9,2.5,-27.8,5.73,2.39,-28.8,26.7
2012-01-11 01:21:00,0.0,1.9164,0.0007,402.28,0.23,6.7,15.0,138.15,27.62,24.59,36.28,0.04,-272.74,-272.74,-46,546,-928,20.5,2.5,-28.3,20.9,2.5,-27.8,5.73,2.32,-28.8,26.7
2012-01-11 01:22:00,0.0,1.9168,0.0009,402.27,0.25,6.2,13.9,138.15,27.61,24.59,36.29,0.04,-272.74,-272.74,-46,546,-929,20.5,2.5,-28.2,20.9,2.5,-27.8,5.73,2.50,-28.8,26.7
2012-01-11 01:23:00,0.0,1.9163,0.0012,402.26,0.25,3.1,9.2,138.15,27.61,24.59,36.28,0.04,-272.74,-272.74,-46,546,-929,20.5,2.5,-28.2,20.9,2.5,-27.8,5.73,2.45,-28.8,26.8
2012-01-11 01:24:00,0.0,1.9170,0.0011,402.35,0.24,5.9,16.7,138.15,27.60,24.59,36.28,0.04,-272.74,-272.73,-46,546,-928,20.5,2.5,-28.2,20.9,2.5,-27.8,5.73,2.30,-28.8,26.7
2012-01-11 01:25:00,0.0,1.9167,0.0008,402.29,0.25,5.8,13.9,138.15,27.60,24.59,36.29,0.04,-272.74,-272.74,-46,546,-928,20.5,2.5,-28.2,20.9,2.5,-27.8,5.73,2.47,-28.8,26.7
2012-01-11 01:26:00,0.0,1.9174,0.0008,402.33,0.24,2.9,8.9,138.15,27.60,24.59,36.28,0.04,-272.74,-272.74,-46,546,-928,20.6,2.5,-28.1,20.9,2.5,-27.8,5.73,2.49,-28.8,26.7
2012-01-11 01:27:00,0.0,1.9166,0.0011,402.34,0.25,8.6,15.1,138.15,27.59,24.59,36.28,0.04,-272.74,-272.74,-46,546,-929,20.6,2.5,-28.1,20.9,2.5,-27.8,5.73,2.31,-28.8,26.7
2012-01-11 01:28:00,0.0,1.9167,0.0008,402.24,0.21,7.9,16.2,138.15,27.59,24.59,36.28,0.04,-272.74,-272.74,-46,546,-928,20.6,2.5,-28.2,20.9,2.5,-27.7,5.73,2.41,-28.8,26.7
2012-01-11 01:29:00,0.0,1.9168,0.0009,402.30,0.26,6.5,16.7,138.15,27.58,24.59,36.28,0.04,-272.74,-272.74,-46,546,-929,20.6,2.5,-28.1,20.9,2.5,-27.7,5.73,2.52,-28.8,26.7
2012-01-11 01:30:00,0.0,1.9166,0.0009,402.23,0.20,6.3,15.7,138.15,27.58,24.59,36.29,0.04,-272.74,-272.74,-46,546,-929,20.6,2.5,-28.2,20.9,2.5,-27.7,5.73,2.35,-28.8,26.7
2012-01-11 01:31:00,0.0,1.9163,0.0009,402.24,0.20,7.0,17.2,138.15,27.57,24.59,36.28,0.04,-272.74,-272.74,-46,546,-928,20.6,2.5,-28.1,20.9,2.5,-27.7,5.73,2.35,-28.8,26.7
2012-01-11 01:32:00,0.0,1.9173,0.0012,402.39,0.22,7.7,15.4,138.15,27.57,24.59,36.28,0.04,-272.74,-272.75,-46,546,-929,20.6,2.5,-28.1,20.9,2.5,-27.7,5.73,2.52,-28.8,26.7
2012-01-11 01:33:00,0.0,1.9173,0.0009,402.26,0.22,10.7,21.6,138.15,27.56,24.59,36.28,0.04,-272.73,-272.74,-46,546,-929,20.6,2.5,-28.1,20.9,2.5,-27.7,5.73,2.38,-28.8,26.7
2012-01-11 01:34:00,0.0,1.9171,0.0008,402.31,0.23,5.6,12.4,138.15,27.56,24.59,36.28,0.04,-272.74,-272.73,-45,546,-929,20.6,2.5,-28.1,20.9,2.5,-27.8,5.73,2.33,-28.8,26.7
2012-01-11 01:35:00,0.0,1.9175,0.0009,402.33,0.20,7.0,16.5,138.15,27.55,24.59,36.28,0.04,-272.74,-272.74,-45,546,-929,20.6,2.5,-28.2,20.9,2.5,-27.8,5.73,2.51,-28.8,26.7
2012-01-11 01:36:00,0.0,1.9175,0.0010,402.35,0.21,6.4,14.1,138.15,27.54,24.59,36.28,0.04,-272.74,-272.74,-46,546,-929,20.6,2.5,-28.2,20.9,2.5,-27.8,5.73,2.44,-28.8,26.7
2012-01-11 01:37:00,0.0,1.9170,0.0009,402.27,0.26,8.0,19.1,138.15,27.54,24.59,36.28,0.04,-272.75,-272.73,-46,546,-929,20.6,2.5,-28.2,20.9,2.5,-27.8,5.73,2.31,-28.8,26.7
2012-01-11 01:38:00,0.0,1.9180,0.0008,402.41,0.25,8.3,16.0,138.15,27.53,24.59,36.28,0.04,-272.74,-272.74,-45,546,-928,20.6,2.5,-28.2,20.9,2.5,-27.8,5.73,2.48,-28.8,26.7
2012-01-11 01:39:00,0.0,1.9175,0.0011,402.31,0.27,7.4,18.0,138.15,27.53,24.59,36.28,0.04,-272.74,-272.74,-45,546,-929,20.6,2.5,-28.2,20.9,2.5,-27.9,5.73,2.47,-28.8,26.7
2012-01-11 01:40:00,0.0,1.9182,0.0010,402.37,0.23,8.5,16.1,138.15,27.53,24.59,36.28,0.04,-272.74,-272.74,-46,546,-929,20.6,2.5,-28.2,20.9,2.5,-27.8,5.73,2.31,-28.8,26.7
2012-01-11 01:41:00,0.0,1.9183,0.0011,402.34,0.21,5.2,11.3,138.15,27.52,24.59,36.28,0.04,-272.74,-272.74,-46,546,-929,20.7,2.5,-28.2,20.9,2.5,-27.8,5.73,2.42,-28.8,26.7
2012-01-11 01:42:00,0.0,1.9187,0.0010,402.43,0.27,9.8,19.8,138.15,27.52,24.59,36.28,0.04,-272.74,-272.74,-45,546,-928,20.6,2.5,-28.2,20.9,2.5,-27.8,5.73,2.52,-28.8,26.7
2012-01-11 01:43:00,0.0,1.9189,0.0009,402.42,0.24,6.9,14.4,138.15,27.51,24.58,36.28,0.04,-272.74,-272.74,-46,546,-929,20.6,2.5,-28.2,20.9,2.5,-27.8,5.73,2.34,-28.8,26.7
2012-01-11 01:44:00,0.0,1.9186,0.0010,402.52,0.23,8.0,15.4,138.15,27.51,24.59,36.27,0.04,-272.73,-272.74,-46,546,-928,20.7,2.5,-28.2,20.9,2.5,-27.8,5.73,2.36,-28.8,26.6
2012-01-11 01:45:00,0.0,1.9188,0.0010,402.50,0.24,8.4,17.2,138.15,27.51,24.59,36.27,0.04,-272.75,-272.74,-46,546,-928,20.6,2.5,-28.2,20.9,2.5,-27.9,5.73,2.53,-28.8,26.5
2012-01-11 01:46:00,0.0,1.9190,0.0009,402.47,0.21,4.0,15.0,138.15,27.50,24.59,36.28,0.04,-272.74,-272.74,-45,546,-928,20.6,2.5,-28.2,20.9,2.5,-27.8,5.73,2.38,-28.8,26.5
2012-01-11 01:47:00,0.0,1.9194,0.0011,402.47,0.19,10.2,18.1,138.15,27.50,24.59,36.28,0.04,-272.74,-272.74,-46,546,-928,20.6,2.5,-28.2,20.9,2.5,-27.8,5.73,2.33,-28.8,26.6
2012-01-11 01:48:00,0.0,1.9192,0.0010,402.56,0.21,6.9,13.5,138.15,27.49,24.58,36.27,0.04,-272.74,-272.74,-46,546,-928,20.6,2.5,-28.2,20.9,2.5,-27.8,5.73,2.51,-28.8,26.6
2012-01-11 01:49:00,0.0,1.9187,0.0010,402.44,0.22,7.1,15.2,138.15,27.49,24.59,36.28,0.04,-272.74,-272.74,-46,546,-928,20.6,2.5,-28.2,20.9,2.5,-27.8,5.73,2.43,-28.8,26.7
2012-01-11 01:50:00,0.0,1.9193,0.0009,402.51,0.27,7.1,15.4,138.15,27.49,24.58,36.27,0.04,-272.73,-272.74,-46,546,-928,20.6,2.5,-28.2,20.9,2.5,-27.8,5.73,2.31,-28.8,26.5
2012-01-11 01:51:00,0.0,1.9187,0.0012,402.48,0.25,14.7,23.2,138.15,27.48,24.59,36.28,0.04,-272.74,-272.74,-46,546,-928,20.6,2.5,-28.1,20.9,2.5,-27.8,5.73,2.47,-28.8,26.4
2012-01-11 01:52:00,0.0,1.9185,0.0011,402.46,0.23,4.8,10.4,138.15,27.48,24.59,36.28,0.04,-272.74,-272.74,-46,546,-928,20.6,2.5,-28.1,20.9,2.5,-27.8,5.73,2.48,-28.8,26.6
2012-01-11 01:53:00,0.0,1.9187,0.0011,402.53,0.28,8.7,15.0,138.15,27.47,24.59,36.28,0.04,-272.75,-272.75,-46,546,-928,20.6,2.5,-28.2,20.9,2.5,-27.8,5.73,2.31,-28.8,26.6
2012-01-11 01:54:00,0.0,1.9194,0.0011,402.48,0.26,6.5,14.1,138.15,27.47,24.58,36.28,0.04,-272.74,-272.74,-45,546,-929,20.6,2.5,-28.2,20.9,2.5,-27.8,5.73,2.42,-28.8,26.7
2012-01-11 01:55:00,0.0,1.9189,0.0010,402.50,0.25,7.8,16.0,138.15,27.47,24.59,36.28,0.04,-272.75,-272.74,-46,546,-928,20.6,2.5,-28.2,20.9,2.5,-27.8,5.73,2.51,-28.8,26.7
2012-01-11 01:56:00,0.0,1.9191,0.0008,402.40,0.23,5.6,11.7,138.15,27.46,24.58,36.28,0.04,-272.74,-272.74,-46,546,-928,20.6,2.5,-28.2,20.9,2.5,-27.8,5.73,2.32,-28.8,26.7
2012-01-11 01:57:00,0.0,1.9190,0.0009,402.45,0.28,6.4,12.1,138.15,27.46,24.59,36.28,0.04,-272.74,-272.74,-46,546,-929,20.6,2.5,-28.1,20.9,2.5,-27.8,5.73,2.39,-28.8,26.7
2012-01-11 01:58:00,0.0,1.9197,0.0009,402.56,0.27,6.9,15.0,138.15,27.45,24.58,36.27,0.04,-272.74,-272.75,-45,546,-928,20.6,2.5,-28.1,20.9,2.5,-27.8,5.73,2.52,-28.8,26.7
2012-01-11 01:59:00,0.0,1.9192,0.0009,402.45,0.23,10.9,19.3,138.15,27.45,24.59,36.28,0.04,-272.74,-272.74,-46,546,-928,20.6,2.5,-28.2,20.9,2.5,-27.8,5.73,2.34,-28.8,26.7
2012-01-11 02:00:00,0.0,1.9196,0.0009,402.46,0.26,14.0,20.9,138.15,27.44,24.58,36.28,0.04,-272.74,-272.74,-46,546,-929,20.6,2.5,-28.2,20.9,2.5,-27.8,5.73,2.38,-28.8,26.7
2012-01-11 02:01:00,0.0,1.9196,0.0010,402.51,0.23,10.5,19.5,138.15,27.44,24.58,36.28,0.04,-272.74,-272.74,-46,546,-928,20.6,2.5,-28.2,20.9,2.5,-27.9,5.73,2.53,-28.7,26.7
2012-01-11 02:02:00,0.0,1.9185,0.0008,402.41,0.25,6.2,15.7,138.15,27.44,24.59,36.28,0.04,-272.74,-272.74,-45,546,-928,20.7,2.5,-28.2,20.9,2.5,-27.9,5.73,2.36,-28.7,26.6
2012-01-11 02:03:00,0.0,1.9187,0.0010,402.38,0.24,12.6,20.9,138.15,27.43,24.59,36.28,0.04,-272.74,-272.74,-46,546,-928,20.7,2.5,-28.2,20.9,2.5,-27.8,5.73,2.35,-28.7,26.6
2012-01-11 02:04:00,0.0,1.9190,0.0011,402.55,0.24,10.2,21.5,138.15,27.42,24.59,36.27,0.04,-272.74,-272.75,-46,546,-929,20.7,2.5,-28.2,20.9,2.5,-27.9,5.73,2.52,-28.8,26.6
2012-01-11 02:05:00,0.0,1.9191,0.0008,402.49,0.26,10.0,17.3,138.15,27.42,24.58,36.28,0.04,-272.74,-272.73,-45,547,-928,20.7,2.5,-28.2,20.9,2.5,-27.8,5.73,2.38,-28.8,26.7
2012-01-11 02:06:00,0.0,1.9201,0.0011,402.49,0.19,11.4,19.6,138.15,27.42,24.58,36.28,0.04,-272.74,-272.74,-45,546,-928,20.7,2.5,-28.2,20.9,2.5,-27.8,5.73,2.33,-28.8,26.7
2012-01-11 02:07:00,0.0,1.9200,0.0010,402.48,0.20,18.0,25.1,138.15,27.41,24.59,36.28,0.04,-272.74,-272.74,-46,546,-928,20.7,2.5,-28.2,20.9,2.5,-27.8,5.73,2.52,-28.8,26.7
2012-01-11 02:08:00,0.0,1.9199,0.0010,402.53,0.23,10.7,22.6,138.15,27.41,24.58,36.28,0.04,-272.74,-272.74,-46,546,-928,20.7,2.5,-28.2,20.9,2.5,-27.9,5.73,2.40,-28.8,26.7
2012-01-11 02:09:00,0.0,1.9204,0.0009,402.56,0.26,9.5,17.9,138.15,27.41,24.58,36.27,0.04,-272.74,-272.74,-45,546,-928,20.7,2.5,-28.2,20.9,2.5,-27.8,5.73,2.32,-28.8,26.7
2012-01-11 02:10:00,0.0,1.9200,0.0008,402.52,0.27,8.4,17.0,138.15,27.40,24.59,36.28,0.04,-272.74,-272.73,-46,546,-928,20.7,2.5,-28.2,20.9,2.5,-27.8,5.73,2.51,-28.8,26.7
2012-01-11 02:11:00,0.0,1.9203,0.0010,402.47,0.23,8.9,20.4,138.15,27.40,24.58,36.28,0.04,-272.74,-272.74,-46,546,-928,20.7,2.5,-28.2,20.9,2.5,-27.8,5.73,2.43,-28.8,26.6
2012-01-11 02:12:00,0.0,1.9208,0.0008,402.71,0.23,9.7,18.0,138.15,27.40,24.58,36.26,0.04,-272.74,-272.74,-46,546,-928,20.7,2.5,-28.2,20.9,2.5,-27.8,5.73,2.31,-28.8,26.7
2012-01-11 02:13:00,0.0,1.9206,0.0009,402.69,0.20,8.1,15.9,138.15,27.40,24.59,36.27,0.04,-272.74,-272.74,-45,546,-928,20.7,2.5,-28.2,20.9,2.5,-27.9,5.73,2.48,-28.8,26.7
2012-01-11 02:14:00,0.0,1.9213,0.0009,402.65,0.20,7.4,16.0,138.15,27.39,24.58,36.27,0.04,-272.74,-272.74,-46,546,-928,20.7,2.4,-28.3,20.9,2.5,-27.9,5.73,2.47,-28.8,26.7
2012-01-11 02:15:00,0.0,1.9203,0.0009,402.64,0.24,5.5,13.9,138.15,27.39,24.58,36.27,0.04,-272.74,-272.74,-46,546,-928,20.7,2.4,-28.3,20.9,2.5,-27.9,5.73,2.30,-28.8,26.6
2012-01-11 02:16:00,0.0,1.9203,0.0008,402.61,0.25,3.7,10.6,138.15,27.38,24.58,36.27,0.04,-272.74,-272.74,-46,546,-928,20.7,2.4,-28.3,20.9,2.5,-27.9,5.73,2.46,-28.8,26.6
2012-01-11 02:17:00,0.0,1.9202,0.0010,402.65,0.24,7.7,16.4,138.15,27.38,24.58,36.27,0.04,-272.74,-272.75,-45,546,-928,20.7,2.5,-28.2,20.9,2.5,-27.8,5.73,2.49,-28.8,26.6
2012-01-11 02:18:00,0.0,1.9208,0.0011,402.55,0.24,8.7,18.0,138.15,27.38,24.58,36.28,0.04,-272.74,-272.74,-46,546,-928,20.7,2.5,-28.2,20.9,2.5,-27.8,5.73,2.30,-28.8,26.6